Weather Roundup
Issued by NWS Corpus Christi, TX

Home | Current Version | Previous Version | Text Only | Print | Product List | Glossary On
Versions: 1 2 3 4 5 6 7 8 9 10 11 12 13 14 15 16 17 18 19 20 21 22 23 24 25 26 27 28 29 30 31 32 33 34 35 36 37 38 39 40 41 42 43 44 45 46 47 48 49 50
000
ASUS44 KCRP 230210
HRRCRP

SOUTH TEXAS REGIONAL WEATHER ROUNDUP
NATIONAL WEATHER SERVICE CORPUS CHRISTI TX
900 PM CDT WED OCT 22 2014


TXZ229>244-230300-
...CORPUS CHRISTI AREA OBSERVATIONS...

CITY           SKY/WX    TMP DP  RH WIND       PRES   REMARKS
CORPUS CHRISTI PTCLDY    73  65  75 E7        30.04R
NAS CORPUS CHR PTCLDY    75  67  76 E9        30.04R
ROCKPORT       CLEAR     75  65  70 E12       30.04S
KINGSVILLE NAS PTCLDY    73  67  81 E8        30.04R
ALICE          CLEAR     73  65  75 E8        30.03S
FALFURRIAS     CLEAR     72  65  80 E7        30.03R
$$

...VICTORIA AREA OBSERVATIONS...

CITY           SKY/WX    TMP DP  RH WIND       PRES   REMARKS
VICTORIA       CLEAR     70  63  78 SE6       30.07R
BEEVILLE       FAIR      73  64  73 SE6       30.06R
PLEASANTON     PTCLDY    74  56  53 CALM      30.06R
SAN ANTONIO    MOCLDY    76  56  49 E5        30.07R
$$

...LAREDO AREA OBSERVATIONS...

CITY           SKY/WX    TMP DP  RH WIND       PRES   REMARKS
LAREDO         MOCLDY    79  64  59 E13       30.06R
COTULLA        MOCLDY    81  59  47 SE10      30.04R
DEL RIO        LGT RAIN  65  63  93 E3        30.07S FOG
MCALLEN        CLOUDY    78  68  71 NE5       30.02R
HEBBRONVILLE   PTCLDY    75  63  65 E7        30.06R
$$

...OTHER TEXAS OBSERVATIONS...

CITY           SKY/WX    TMP DP  RH WIND       PRES   REMARKS
BROWNSVILLE    CLEAR     75  68  78 NE5       30.01R
HOUSTON        CLEAR     67  59  75 CALM      30.08R
COL. STATION   MOCLDY    71  57  61 NE6       30.09R
AUSTIN         MOCLDY    72  60  66 E3        30.08R
WACO           CLOUDY    68  59  73 E3        30.10R
FORT WORTH     CLOUDY    73  56  54 SE7       30.10R
WICHITA FALLS  CLOUDY    68  61  78 CALM      30.10R
LUBBOCK        CLOUDY    63  59  87 S13       30.12R
EL PASO        PTCLDY    68  55  63 E6        30.10R
$$

...MARINE OBSERVATIONS...

STATION/POSITION TIME  SKY/WX   TEMP    WIND        PRES    VSBY  WAVE   SWELL
                                AIR SEA DIR/SP/G                  HT/PER HT/PER
                 (UTC)          (F)     (DEG/KT/KT) (MB)    (MI)  (FT/S) (FT/S)
PORT ARANSAS     0200            77 78   70/ 15/ 17 1018.0R
BUOY 90 E PORT A 0200            76 81   40/ 12/ 16 1017.4R         4/ 6   3/ 6
BUOY 45 SE BAFFI 0200            78 81   60/ 14/ 16 1016.1R         5/ 7   3/ 7
BUOY 200 E PT IS 0200            80 81   60/ 17/ 19 1014.6R         6/ 7
BUOY 15 E GALVES 0200            75 78   70/  6/  8 1017.7R         3/ 6   2/ 6
$$



USA.gov is the U.S. government's official web portal to all federal, state and local government web resources and services.